sat.trackr.live / text

‹ back to catalog

STARLINK-11288 [DTC]

NORAD 61002 · 2024-158N

PAYLOAD ACTIVE UNKNOWN

§ Identity

Operator
Country
US
Launch date
2024-09-05
Launch site
AFETR
Launch vehicle
Mass (kg)
RCS (m²)

Purposes: comms

External: N2YO · Heavens-Above · Gunter

§ Orbital elements

Epoch: 2026-09-20T16:32:25.831968Z

Period
91.74 min
Inclination
53.1589°
Eccentricity
0.0000741
Mean motion
15.69708205 rev/d
Perigee alt
359.2 km
Apogee alt
360.2 km
Semi-major
6,737.9 km
B*
2.5220e-6
RAAN
39.8304°
Arg perigee
85.8305°
Mean anomaly
274.2798°
Rev number
11,821

§ Raw data

STARLINK-11288 [DTC]1 61002U 24158N   26263.68918787 -.00000282  00000+0  25220-5 0  99902 61002  53.1589  39.8304 0000741  85.8305 274.2798 15.69708205118215

JSON: /api/v1/satellites/61002 · /tle

For live sub-satellite position, see the globe view (requires WebGL).

§ Visibility from observer

Set your observer location to see the next 7 days of passes ≥ 10°. The values pass through the URL so the page stays shareable.

No JS? Fill the form by hand. The geolocation button needs JavaScript.